Location: 22
(39.7117°N, 89.5929°W)
Time: 09:37:37
(UTC-05:00)

S-56A Canister/Altair - Pass Details

Date: 12 February 2023
Orbit: 638 x 2493 km, 38.9° (Epoch: 25 March)

Event Time Altitude Azimuth Distance (km) Brightness Sun altitude
Rises 12:53:37 0° 278° (W) 2,959 10.6 35.9°
Reaches altitude 10° 12:55:54 10° 269° (W) 2,110 10.1 35.8°
Maximum altitude 13:00:14 36° 203° (SSW) 1,219 11.4 35.6°
Drops below altitude 10° 13:05:45 10° 138° (SE) 2,709 10.8 35.3°
Sets 13:09:04 0° 131° (SE) 3,939 11.4 35.1°
